CZ-6A DEB, 56616

Orbit data source: Space-Track

CZ-6A DEB, 56616 is space debris in SSO originally from a launch on Fri, 11 Nov 2022 UTC launched from the Taiyaun Space Center, China (TSC). Debris objects in space refer to the collection of defunct objects orbiting the Earth. Examples of debris include non-operational satellites, rocket bodies, and fragments generated from explosions, collisions, or faulty payload assembly.

Loading next visibility...
Identifier
56616, 2022-151AEQ
Orbit
SSO
Country
Flag of CNCN / PRC
Related business
Manufacturer
SAST
Mission
Spacecraft
Bus & Motor
Unknown
Mass
Unknown
Launch date (UTC)
2022-11-11 (4 years ago)
Launch vehicle
Unknown
Launch site
Taiyaun Space Center, China (TSC)
Object type
Payload
Rocket body
Debris
Shape & HBR
Unknown shape, 0.1 m
Radar Cross Section
Small (<0.1 m²)

Expand to show TLE details & history
Last TLE update: 4 days ago

TLE from 4 days ago
0 CZ-6A DEB
1 56616U 22151AEQ 26169.76048124  .00000154  00000-0  10613-3 0  9995
2 56616  98.8187 173.6060 0031204 300.9371  58.8735 14.12920930162694
Epoch: 2026-06-18T18:15Z
TLE epoch observation values (Epoch: 2026-06-18T18:15:05.579Z)
Latitude
-0.00003°
Longitude
-7.16642°
Altitude
840.686 km
Speed
7.438 km/s
True Right ascension
11h 34m 25s
True Declination
0° 00' 00"
Sunlit
Object was in daylight at epoch
Visualization orbit readout
Latitude
Unknown
Longitude
Unknown
Altitude
Unknown
Speed
Unknown
Apparent Right ascension
Unknown
Apparent Declination
Unknown
Sunlit
N/A
Visualization observer readout
Local Sidereal Time
21:55:37
Azimuth
Unknown
Elevation
Unknown
Doppler factor
Unknown
Orbital elements
Apogee altitude
869.111 km
Perigee altitude
824.023 km
Semi-major axis
7,224.704 km
Eccentricity
0.00312
Inclination
98.8187°
RAAN
173.606°
Arg. of periapsis
300.9371°
True anomaly
59.18021°
Mean anomaly
58.8735°
Eccentric anomaly
59.02679°
Mean motion
3.53438 °/min
Orbital period
101.86 mins
BSTAR
0.00010613
Loading maneuver chart data...
Computing Atmospheric mass density...
Loading historical data...
Loading historical data...
Loading historical data...
Loading historical data...
Loading historical data...
Loading historical data...
Loading historical data...

Documentation

Showing up to 5 results
|